Theta_e
305 305 305 306 305 305 305 305 305 305 305 305 305 305 305 304 304 305 305 305 306 306 304 304 305 304 304 304 304 304 305 305 305 306 306 307 308 309 309 309 309 309 310 311 311 312 314 314 316 317 317 316 314 313 314 316 319 324 325 325 323 324 326 319 315 320 322 324 325 325 325 325 323 322 323 322 321 319 317 317 317 314 311 311 311 309 315
305 305 305 306 306 305 305 304 304 305 304 304 305 305 304 304 304 305 305 305 305 305 304 304 305 304 304 304 303 304 304 304 305 305 306 307 308 308 309 310 310 310 310 310 311 311 313 314 315 316 316 315 314 313 313 315 318 319 321 324 321 320 323 321 317 318 319 319 320 320 322 322 321 323 324 324 323 323 322 320 319 316 312 312 312 309 314
305 305 305 306 306 305 305 304 304 305 304 304 305 305 304 304 304 304 304 305 305 304 304 304 304 304 304 304 303 304 304 304 305 305 305 307 307 306 308 309 309 310 310 310 311 311 312 314 315 315 315 314 314 313 313 314 316 317 318 321 320 322 326 323 318 316 317 316 316 316 318 320 321 323 324 324 324 323 320 316 314 315 315 314 312 310 316
305 305 305 306 306 305 305 304 304 305 304 304 305 306 304 303 304 304 304 304 305 304 303 304 304 304 304 304 304 304 304 304 304 304 305 306 305 305 307 309 309 310 311 311 311 311 311 312 314 314 315 314 314 313 313 313 315 318 319 318 319 324 327 325 323 321 320 319 322 325 323 320 317 319 322 324 324 324 321 315 312 316 317 314 315 316 316
304 305 305 306 306 305 305 305 304 305 304 304 305 306 304 303 304 304 304 305 304 304 304 304 303 304 304 304 304 304 304 304 304 305 305 305 305 306 308 308 309 309 310 311 312 311 311 312 312 313 313 314 314 313 313 314 315 318 318 316 320 324 323 324 327 327 325 324 326 326 324 321 318 318 320 322 325 325 320 315 315 320 316 312 320 324 318
304 304 305 306 306 306 305 305 305 305 304 304 305 305 303 304 303 303 304 304 304 303 303 304 303 303 303 303 304 304 304 304 304 304 305 304 304 306 308 308 308 308 308 309 311 312 313 312 312 313 313 314 314 314 313 313 314 316 315 315 319 321 321 322 324 324 324 323 323 323 323 324 323 322 321 320 323 322 319 317 320 323 317 315 324 327 322
305 304 304 305 306 306 306 305 305 305 304 304 306 305 304 304 303 303 303 304 303 303 303 303 303 303 303 304 304 304 303 304 304 304 304 304 304 306 307 307 307 307 307 308 311 311 312 313 313 313 313 313 313 314 314 314 314 314 314 315 317 317 320 323 321 320 321 322 322 323 322 322 322 323 323 323 323 322 321 322 324 323 321 322 327 328 327
305 304 304 304 305 305 306 306 305 305 304 305 306 305 304 304 304 304 304 303 303 303 303 303 303 302 303 304 304 303 303 303 304 304 304 305 305 306 306 307 306 307 307 308 309 309 310 311 311 311 312 313 313 313 314 314 314 313 313 315 316 316 319 321 319 318 319 320 322 322 322 322 321 321 324 324 323 323 322 323 324 323 322 324 326 326 327
304 305 304 304 304 304 305 306 306 305 305 305 305 305 304 305 304 305 305 304 304 303 303 303 303 302 303 303 303 303 303 302 303 303 304 305 306 306 306 306 306 307 307 307 307 308 308 309 309 310 310 311 311 312 312 313 313 313 314 315 315 316 317 318 319 318 318 319 321 320 320 321 319 318 322 323 321 321 322 323 325 322 322 323 322 319 324
304 304 304 303 303 303 304 306 306 306 305 306 306 305 304 305 305 305 305 305 304 303 303 302 302 302 302 303 303 303 303 302 303 304 305 306 306 306 305 306 306 307 308 308 308 308 308 308 308 308 308 309 309 310 311 311 311 312 314 314 315 315 315 316 318 318 318 319 319 319 319 319 317 318 322 323 323 323 323 323 326 325 324 322 319 321 327
303 302 302 302 301 301 303 304 306 306 305 306 306 306 305 305 305 305 305 304 304 303 303 303 302 303 302 303 303 302 302 303 304 305 305 305 305 305 305 305 306 307 307 307 307 307 307 307 307 307 307 308 308 309 309 310 311 311 312 314 314 315 315 316 318 319 319 319 319 319 318 317 319 322 324 324 324 324 323 323 324 325 326 325 324 327 330
302 302 301 301 301 302 302 303 305 306 306 306 306 306 305 305 305 305 304 304 304 303 303 303 303 303 303 302 302 302 302 302 303 304 304 304 304 304 305 306 306 307 307 306 306 306 306 306 306 307 308 308 308 309 309 310 310 311 311 313 313 314 315 315 317 319 318 318 319 320 318 319 322 324 326 326 324 324 324 325 326 325 325 326 326 327 328
302 302 301 301 301 303 303 303 304 306 306 306 306 306 305 305 305 305 305 305 304 303 303 303 303 303 303 302 302 302 302 303 303 303 303 304 305 305 305 305 306 307 306 305 306 307 307 308 308 308 308 308 309 309 310 310 310 310 311 311 312 313 314 314 315 316 317 318 319 319 320 321 322 325 328 328 328 329 326 322 324 325 325 326 327 327 327
301 302 302 301 301 303 304 304 304 305 306 306 306 306 305 305 305 306 306 305 304 303 303 303 303 303 303 303 303 303 303 303 303 303 304 304 304 305 305 305 306 306 305 306 307 308 309 309 309 309 308 309 309 310 310 310 310 310 311 311 312 313 313 314 314 315 317 317 317 318 320 320 320 326 334 334 334 339 335 328 327 328 326 325 326 327 327
301 301 301 301 302 303 305 305 305 306 307 307 306 306 305 305 305 305 306 305 304 304 303 303 303 303 303 303 303 303 303 303 304 304 304 304 304 305 305 305 306 306 305 306 308 308 309 310 310 310 309 309 310 310 311 311 311 310 310 311 312 313 313 314 314 314 316 316 317 319 319 318 321 329 337 337 334 339 342 334 330 331 332 330 329 328 327
302 302 302 303 303 304 305 305 305 305 307 307 307 306 306 305 305 305 305 305 304 304 304 303 303 303 303 303 303 303 303 303 303 304 304 305 305 305 304 305 306 306 305 307 308 309 309 309 310 310 309 309 311 311 311 312 312 311 311 310 312 312 313 314 314 313 314 315 317 319 318 320 328 335 335 332 330 337 340 327 323 335 345 341 340 338 333
302 302 303 304 304 304 305 305 305 305 306 307 307 306 306 306 305 305 305 305 305 304 303 303 303 303 303 303 303 303 303 303 303 304 304 305 305 304 304 305 306 306 306 307 309 309 309 309 310 309 309 309 311 311 312 312 312 312 312 310 311 312 313 313 313 313 314 314 315 317 316 320 329 334 332 328 329 337 334 320 321 339 347 343 345 347 344
301 301 303 304 305 305 305 306 305 305 306 307 307 307 306 306 305 305 305 305 305 304 303 303 303 303 303 303 303 303 303 303 304 304 304 304 305 305 305 305 305 306 307 308 309 309 309 309 309 309 310 310 310 310 311 312 312 314 315 313 312 313 314 314 313 313 313 313 313 314 315 319 323 325 327 329 328 328 325 321 329 343 344 342 346 346 347
303 304 304 306 306 306 306 306 306 306 306 307 308 307 306 306 306 305 305 305 305 304 304 304 304 303 303 304 303 303 303 303 304 304 304 304 305 305 305 305 306 306 307 308 309 309 309 309 309 310 311 311 311 311 312 313 313 315 317 316 315 314 315 315 314 314 313 313 313 312 313 317 319 319 323 328 324 322 326 333 340 341 340 342 346 345 347
305 305 306 306 306 306 306 306 306 306 307 308 308 307 307 306 306 305 305 305 306 305 304 304 304 304 304 304 303 303 303 303 304 304 304 305 305 304 305 306 307 307 308 309 309 309 309 309 310 311 311 311 313 313 312 312 312 313 315 316 316 316 316 315 314 314 314 314 313 313 314 316 316 317 322 326 325 328 336 340 337 334 338 344 345 346 348
306 306 306 307 307 307 307 307 307 308 308 308 308 308 308 307 306 306 305 305 305 306 305 305 304 304 304 304 303 304 304 304 304 304 304 304 304 305 305 306 306 306 307 309 309 309 309 309 310 311 311 312 312 312 312 313 313 312 314 315 315 316 317 316 316 315 315 314 314 315 320 323 321 319 321 323 329 337 341 337 334 336 341 344 345 347 347
306 306 307 307 307 307 307 307 308 308 308 308 308 308 308 308 307 306 306 306 305 305 305 305 305 305 305 304 304 304 304 304 304 304 304 304 304 304 305 305 305 306 307 308 308 309 310 310 310 311 310 311 312 312 313 314 313 313 314 314 315 316 317 318 319 319 318 317 317 319 324 325 324 324 322 322 330 337 338 336 337 340 342 343 344 345 345
306 307 307 307 307 307 307 307 307 307 308 308 308 308 309 308 307 307 306 305 305 305 305 305 305 305 305 305 305 305 305 305 305 305 305 304 305 305 305 305 305 305 306 307 308 309 310 310 310 310 310 310 311 312 313 313 312 312 313 313 314 315 315 316 317 318 318 319 320 320 322 322 323 326 326 326 330 334 335 337 340 341 341 341 342 343 344
306 307 307 307 307 307 308 308 308 307 308 308 308 308 308 308 308 307 306 305 305 306 306 306 305 306 306 306 306 306 305 306 306 305 305 305 305 305 305 305 305 305 306 307 307 308 309 309 310 310 310 309 310 312 312 311 311 312 312 312 313 313 313 315 316 317 318 319 320 319 320 323 324 326 328 330 331 332 334 338 340 340 340 339 340 342 344
306 306 307 307 307 308 308 308 308 308 308 308 308 308 308 308 308 307 306 306 306 306 306 306 306 306 306 306 306 305 305 306 306 306 306 306 305 305 305 305 305 305 306 307 307 308 309 309 309 309 309 309 310 311 311 311 311 312 312 312 312 313 313 314 314 315 317 318 319 319 320 322 322 323 327 332 333 333 334 337 338 338 338 339 340 341 342
306 306 307 307 307 308 308 308 308 308 308 308 308 308 308 308 308 307 306 307 307 307 307 306 306 305 305 306 306 306 306 306 306 306 306 306 306 306 306 306 306 306 306 306 306 308 309 310 309 309 309 310 310 310 310 310 311 312 311 312 312 312 312 312 313 314 315 316 317 317 318 319 320 322 326 332 334 334 334 336 336 337 338 339 339 339 339
307 307 307 307 308 308 308 308 308 308 308 308 308 308 308 308 308 307 307 306 307 307 307 307 306 306 306 306 306 307 307 307 306 306 306 307 307 307 307 306 306 306 306 306 306 307 308 308 308 308 309 309 309 310 310 310 310 311 311 311 311 312 312 312 314 314 314 315 316 317 318 320 323 326 330 333 334 334 335 336 336 336 337 338 338 338 338
307 307 307 308 308 308 308 308 308 308 308 308 308 308 308 308 308 307 307 306 307 308 308 307 306 306 306 307 307 307 307 307 307 307 307 307 307 307 307 307 306 306 307 307 307 307 307 307 308 308 308 309 310 310 310 310 312 312 311 311 311 312 313 313 313 314 315 315 317 319 321 324 326 328 330 331 333 335 336 337 336 335 335 335 337 338 338
308 308 308 308 308 308 308 308 308 308 308 308 308 308 308 308 307 307 307 307 307 307 307 306 306 306 307 308 308 308 308 308 308 308 308 308 308 308 308 307 307 307 307 307 307 308 307 307 307 307 308 310 311 311 311 311 312 311 311 312 312 312 313 312 313 313 314 315 316 317 320 323 324 325 326 328 331 335 337 336 335 335 334 334 335 336 337
308 308 308 308 307 308 308 308 308 308 308 308 308 308 308 308 307 307 307 307 306 306 306 306 306 307 307 307 308 308 309 309 309 309 309 309 308 309 309 308 308 307 307 307 307 307 308 308 308 308 308 311 312 311 311 311 312 312 312 312 312 312 312 311 312 313 314 315 315 316 318 320 322 322 324 326 331 334 335 334 334 334 333 333 334 334 334
308 307 307 307 307 308 308 308 308 308 308 308 309 309 310 309 308 306 306 306 306 306 306 306 307 306 306 307 308 309 310 310 310 310 310 310 309 310 310 309 308 308 308 308 308 308 308 309 309 310 311 312 312 311 310 311 312 313 312 312 312 312 312 311 311 312 314 315 316 317 319 320 322 323 325 328 331 333 333 333 333 332 332 333 334 334 334
308 308 307 307 308 308 309 309 309 309 308 309 309 309 309 308 307 306 306 306 306 306 306 306 307 306 307 309 309 309 310 310 310 310 311 311 311 311 310 309 308 308 309 309 309 309 309 309 310 311 312 313 311 310 310 310 312 313 312 312 312 312 311 311 312 312 314 315 316 318 320 322 322 324 327 329 331 331 331 331 331 330 331 332 333 333 334
308 308 308 308 308 309 310 310 310 310 309 309 308 308 307 306 306 306 305 306 306 306 306 306 307 307 308 309 309 310 310 310 310 310 312 312 312 312 311 310 309 309 310 310 310 310 309 310 311 311 312 312 311 309 309 311 312 312 311 311 312 312 312 312 312 312 314 315 317 319 322 323 323 325 328 329 330 331 330 330 330 330 330 330 331 331 332
309 308 308 308 309 309 309 309 309 309 309 309 310 309 308 307 306 306 306 306 306 306 306 306 306 307 308 308 310 311 311 311 311 311 312 313 313 313 313 312 311 311 311 311 310 311 311 312 312 312 312 312 311 310 311 312 312 311 311 312 312 312 312 312 313 314 315 317 318 320 321 323 325 327 328 329 329 329 329 329 329 329 329 329 330 331 331
309 308 309 309 309 309 309 309 309 310 310 310 310 309 308 308 307 306 305 306 306 307 306 306 306 307 308 309 312 312 311 311 312 312 313 313 313 314 315 315 313 312 312 311 311 311 312 314 314 313 313 313 313 312 313 313 312 312 313 313 312 313 314 315 317 318 319 320 322 322 323 324 327 328 328 328 328 327 326 326 326 327 328 328 329 329 330
310 309 310 309 308 309 310 311 311 311 312 312 310 309 309 309 309 307 306 306 306 307 308 307 307 308 309 310 311 311 310 312 313 314 315 316 315 316 317 317 315 314 314 313 312 313 313 314 314 313 313 314 314 314 314 314 314 314 315 315 315 316 317 318 320 323 323 324 325 326 326 327 328 328 328 328 327 326 325 325 326 327 328 328 329 329 329
311 310 310 310 310 312 315 314 312 311 311 310 309 309 309 309 309 307 306 306 306 307 307 307 307 308 309 309 310 311 312 314 315 316 317 318 318 317 318 316 314 315 315 314 313 314 314 313 313 313 312 314 315 315 315 316 316 316 318 318 319 320 321 322 323 325 326 326 327 327 327 327 327 328 328 329 328 327 327 328 328 329 329 329 330 330 330
312 312 312 314 316 317 317 316 312 310 309 309 309 310 310 310 309 309 308 308 308 308 308 307 307 308 309 309 310 312 313 315 315 315 315 317 317 317 316 315 314 314 313 312 313 313 313 313 313 312 313 316 318 319 320 320 320 320 320 320 321 324 326 326 326 327 328 328 329 328 327 328 328 328 328 328 328 328 328 328 329 330 330 330 330 330 330
315 315 317 320 319 317 316 314 311 309 310 311 312 313 313 311 311 311 310 309 309 309 309 308 309 309 309 310 312 314 314 314 315 316 316 317 317 316 315 314 313 313 313 313 314 313 313 314 314 313 315 319 322 321 321 322 322 323 323 323 325 326 327 328 328 329 330 331 329 328 328 329 329 329 328 328 328 327 327 329 330 330 330 329 329 329 329
317 318 319 319 318 316 314 312 310 310 312 314 314 315 315 314 313 314 313 312 312 312 310 310 311 311 309 310 313 315 314 314 316 317 317 318 318 317 316 315 313 313 313 315 315 312 311 313 314 315 318 321 322 320 321 321 321 321 322 324 326 327 327 327 329 329 330 329 328 328 328 328 328 328 328 328 327 327 328 329 330 330 329 328 328 327 327
317 317 317 316 315 312 312 311 311 313 316 317 316 316 316 316 315 315 315 316 316 316 313 312 314 316 314 312 312 315 316 316 316 316 317 319 319 319 317 316 316 315 315 317 317 315 312 313 316 318 320 321 320 320 320 321 320 320 320 321 323 325 326 327 329 329 328 329 329 329 329 329 328 328 328 328 328 329 329 329 329 328 328 327 327 326 326
313 312 312 312 311 312 313 314 315 317 317 316 316 316 316 318 319 318 318 319 319 318 317 317 318 320 320 317 316 317 318 318 317 318 320 321 320 319 319 319 319 318 318 319 320 317 315 316 319 320 320 320 320 320 320 319 319 319 319 319 321 322 323 325 327 327 327 328 328 328 328 328 328 328 328 328 328 328 328 327 327 327 327 327 326 325 325
311 310 311 313 314 316 317 316 316 317 316 315 316 318 318 318 319 320 321 320 319 319 320 320 320 320 321 321 320 320 319 318 317 320 322 322 321 321 321 321 320 320 320 320 320 318 317 319 321 320 320 320 319 319 319 319 319 319 319 319 320 320 320 321 322 323 323 324 324 324 324 324 324 325 325 325 325 325 324 325 325 325 325 325 325 325 325
314 314 316 317 316 316 317 316 315 316 317 316 316 319 320 320 320 321 322 321 320 320 320 320 320 321 322 321 322 322 321 320 320 322 322 322 322 323 322 322 322 323 322 321 319 318 318 319 320 320 319 318 318 318 318 319 319 319 319 318 319 319 319 319 320 319 319 319 320 320 320 320 321 321 321 321 322 322 323 323 323 323 323 324 324 325 325
317 316 316 316 315 315 317 317 316 316 318 318 318 319 320 320 320 321 320 319 319 320 321 321 320 320 320 320 321 322 321 322 323 322 321 322 322 322 321 321 322 321 321 320 319 319 319 319 319 319 318 318 318 318 318 317 318 318 318 318 318 318 318 319 319 319 318 318 318 317 318 318 318 319 319 319 320 320 320 321 321 320 321 321 322 323 323
316 314 314 316 316 315 317 317 316 316 318 319 319 319 320 319 319 319 319 317 318 319 320 321 321 320 319 319 321 320 320 321 321 320 320 322 322 320 320 321 321 320 320 320 320 320 319 319 318 318 318 317 318 318 317 316 316 317 318 318 318 318 318 318 318 318 318 318 317 317 317 317 317 317 317 317 318 318 319 318 318 318 318 319 320 320 319
316 314 314 316 316 316 317 318 318 318 318 318 317 317 318 318 318 318 318 317 318 319 318 319 320 321 320 319 319 319 319 319 319 318 319 322 321 319 319 320 320 319 320 320 319 319 318 317 317 317 317 317 317 317 317 316 316 316 316 317 317 317 317 317 317 317 317 317 317 316 316 316 316 316 316 315 315 316 316 316 316 316 316 317 317 317 317
315 315 315 316 316 317 316 317 317 316 316 316 316 316 316 317 317 318 317 317 318 319 318 318 319 320 319 318 318 318 317 317 318 317 317 318 319 317 317 318 318 318 318 318 318 318 317 316 316 316 316 316 317 317 316 316 316 316 316 316 316 316 316 315 315 315 315 315 315 315 315 315 314 314 314 314 314 314 314 314 314 314 315 315 315 315 316
314 314 315 316 316 316 315 315 316 315 315 315 316 316 316 317 317 317 317 317 319 320 319 317 318 319 319 318 318 318 317 317 317 316 316 316 317 316 316 317 316 316 316 316 317 317 316 316 316 315 314 314 315 316 316 316 316 316 316 315 315 315 315 315 315 315 315 314 314 314 314 313 313 313 313 313 313 312 312 312 312 312 313 314 314 314 314
314 314 314 315 315 315 314 315 315 315 315 315 315 316 316 316 317 316 317 318 319 319 318 318 317 317 317 317 317 317 317 317 317 316 316 316 316 315 315 315 314 314 314 314 314 314 314 315 315 315 315 315 315 315 315 315 315 315 316 316 316 316 316 316 316 316 315 315 314 314 314 314 313 313 313 312 312 311 311 310 311 311 311 311 312 312 312
314 314 314 314 314 314 314 314 314 314 314 315 315 315 315 316 316 316 317 318 318 318 318 318 317 316 315 317 317 317 317 317 317 316 316 317 316 315 314 314 314 314 314 314 313 312 313 314 314 315 315 315 315 316 315 315 315 315 316 316 316 316 316 316 316 316 315 315 314 314 313 313 313 312 312 311 311 311 310 310 310 310 310 310 311 311 311
314 314 314 314 314 313 314 314 314 314 314 314 314 315 315 315 315 315 316 317 317 316 316 316 316 315 315 316 317 317 316 316 316 316 316 317 317 316 315 314 314 314 313 313 312 312 311 312 312 313 314 314 315 315 315 315 315 316 316 316 316 316 316 316 316 316 315 315 315 315 314 313 313 312 312 311 311 311 310 310 310 310 310 310 311 311 311
Wind_Speed
25 25 25 25 26 26 27 29 29 29 28 24 22 18 9 5 7 10 16 20 18 10 3 5 5 4 7 8 7 7 7 8 10 9 9 8 6 6 7 9 8 8 8 8 9 9 8 8 6 1 2 5 7 9 12 13 10 6 2 1 2 2 6 8 8 8 8 9 12 16 18 18 17 16 15 15 15 14 11 8 6 7 10 10 8 9 4
24 25 25 24 25 25 26 27 27 26 25 21 18 13 6 6 7 6 11 16 13 6 5 6 6 6 9 10 8 8 6 7 9 10 9 6 6 7 7 7 8 8 9 9 10 9 6 5 4 3 1 4 7 9 12 12 10 7 5 5 2 4 9 10 8 8 8 8 10 13 17 17 13 13 17 18 18 18 15 11 8 7 11 12 9 8 3
23 24 24 24 24 24 25 26 25 24 22 19 14 9 6 7 4 3 8 11 8 5 5 6 6 7 10 11 10 8 7 6 8 10 9 6 7 9 7 8 10 10 10 10 11 10 8 5 2 3 3 2 5 9 11 10 9 9 10 10 5 4 7 10 11 12 12 11 9 8 11 14 12 13 19 21 22 22 16 11 10 9 10 12 10 7 2
22 22 23 23 23 24 24 25 24 22 21 18 13 9 7 6 4 6 7 6 4 4 4 4 6 7 8 9 8 9 9 7 7 9 7 5 8 9 6 8 10 9 10 10 10 10 9 8 6 4 5 3 4 8 10 7 9 12 14 11 6 4 5 8 10 9 7 4 1 2 2 10 16 17 19 20 21 23 17 11 11 9 9 11 11 10 6
21 21 21 21 22 23 24 24 23 21 19 16 11 8 6 4 4 7 7 5 4 4 4 5 6 7 7 6 7 9 10 9 8 8 6 7 11 8 2 7 10 9 11 10 8 8 8 10 9 7 6 6 6 7 6 4 9 12 11 9 6 4 5 7 9 8 5 4 4 5 5 6 13 17 21 20 20 22 21 16 13 10 9 10 11 13 13
20 20 19 20 21 21 22 23 21 20 19 15 9 6 5 4 4 5 5 5 6 6 7 8 9 9 8 6 6 9 10 10 9 7 7 9 10 5 1 6 10 10 11 10 8 7 7 9 7 6 6 7 7 6 3 2 7 9 7 7 6 5 4 4 6 9 7 6 7 5 4 4 6 10 16 19 21 23 22 20 18 15 12 9 8 13 16
19 19 18 19 20 20 21 21 20 20 18 13 8 6 5 4 4 4 5 6 7 8 9 10 10 10 8 5 5 8 10 10 9 7 8 9 7 5 5 8 10 9 9 9 8 7 6 6 5 7 8 8 7 6 4 1 6 9 7 5 6 5 2 1 4 9 8 7 8 7 6 6 7 9 12 14 18 22 22 21 21 21 17 14 12 13 14
18 19 18 18 18 19 20 19 19 19 17 12 8 5 4 4 4 4 6 7 8 8 8 9 9 8 5 4 5 8 10 10 9 9 9 9 7 5 6 10 11 9 7 7 8 9 8 8 8 9 10 8 5 5 4 2 6 10 7 5 5 4 1 3 6 8 7 8 9 9 9 9 9 11 13 14 16 18 18 19 19 20 19 19 18 16 13
17 18 18 18 17 17 18 19 18 17 15 11 7 5 5 6 5 4 5 6 7 8 7 7 7 6 4 5 6 8 10 10 10 10 8 6 5 5 8 11 11 9 7 7 9 10 10 10 11 10 10 9 8 6 6 7 9 9 6 6 6 6 4 3 5 6 7 8 9 10 10 10 13 15 16 17 17 17 15 15 16 16 17 19 19 16 11
17 17 18 18 17 17 16 17 18 16 13 10 7 6 7 7 5 3 3 6 7 8 7 7 7 5 5 7 8 9 10 10 10 9 4 2 4 7 9 12 10 8 8 7 7 8 10 11 11 10 11 12 12 11 11 12 10 7 7 7 5 5 5 4 3 5 5 6 7 8 7 9 14 15 17 18 18 16 16 16 17 17 15 14 13 11 9
18 18 19 19 19 18 16 16 16 16 14 10 7 8 9 6 4 3 3 6 7 7 7 7 6 6 8 10 10 10 11 10 9 7 5 6 9 10 10 11 9 7 8 8 7 8 12 13 13 12 13 15 16 14 15 16 13 9 7 7 6 6 6 4 3 4 5 4 3 5 8 11 9 7 13 19 20 20 20 18 18 18 16 13 11 9 9
19 19 19 20 20 19 18 16 16 16 15 12 9 10 9 4 3 4 3 5 8 7 7 8 8 10 12 12 11 11 11 11 9 9 10 11 12 11 10 9 8 7 8 10 11 11 13 14 14 15 16 17 18 17 17 17 15 12 9 8 8 7 6 5 4 4 5 4 4 7 10 7 1 1 4 10 15 19 21 20 19 19 17 16 16 14 13
21 20 21 21 21 20 18 18 17 16 17 15 13 13 10 4 4 4 2 5 8 7 8 10 12 12 12 11 11 11 11 11 11 11 11 11 11 10 8 8 8 8 9 11 13 12 11 11 12 13 14 14 15 16 18 18 17 15 14 12 10 8 7 6 5 5 5 5 6 9 5 3 2 3 2 3 7 10 13 18 20 19 18 17 16 16 16
23 22 22 23 23 22 19 18 18 18 19 18 16 16 13 9 7 4 2 4 8 9 9 11 11 11 10 10 11 11 11 11 10 10 9 9 10 10 8 7 8 8 8 9 10 9 8 7 7 8 9 9 10 12 15 16 17 19 18 14 12 11 8 6 6 6 6 6 8 9 6 5 6 6 2 2 2 1 2 8 11 13 16 17 17 17 18
25 25 25 24 24 23 21 20 20 20 21 21 18 18 16 13 11 6 3 4 7 10 8 7 8 10 11 12 11 10 9 8 8 8 8 8 8 8 6 7 8 9 8 7 6 6 6 6 6 6 6 7 8 9 9 11 13 18 19 16 14 13 10 8 7 6 6 7 7 8 9 9 8 6 6 6 4 3 1 3 6 7 8 10 13 16 18
28 28 26 25 25 25 22 21 21 21 22 22 20 19 18 15 14 11 6 4 5 7 6 7 10 12 11 11 11 10 8 7 7 7 6 6 6 7 6 6 7 8 8 6 5 4 5 6 6 5 5 6 6 7 7 7 8 13 17 18 17 16 12 9 8 8 8 8 8 8 9 6 4 7 7 5 4 4 2 5 6 2 3 6 6 8 11
31 30 28 25 25 26 24 21 21 21 22 22 23 21 18 14 16 15 9 4 5 7 10 11 12 11 9 8 8 7 6 6 7 6 5 6 8 9 7 6 6 7 7 6 4 4 5 6 5 6 6 5 5 6 7 7 7 10 14 17 18 16 11 9 10 10 9 10 9 7 7 5 3 5 5 3 4 1 4 7 4 3 7 8 7 7 8
33 32 29 26 25 26 25 22 21 22 22 22 24 23 18 15 16 17 10 4 5 7 9 10 10 9 8 8 8 7 6 7 7 6 6 7 7 7 7 7 6 5 4 5 5 4 5 6 5 6 6 3 4 7 6 7 8 7 9 12 13 12 10 10 11 10 11 12 10 8 7 7 7 5 1 3 4 4 7 5 1 4 6 7 6 8 9
32 30 29 26 24 25 26 24 22 23 22 21 21 20 18 16 19 19 12 5 6 7 8 10 12 13 12 10 9 8 8 9 7 6 7 6 4 7 9 7 5 3 2 4 5 4 5 5 3 4 5 3 2 5 6 7 7 4 5 9 11 10 10 10 10 10 10 10 10 10 8 6 9 11 6 2 4 5 3 1 1 3 6 6 6 8 8
31 29 28 26 24 24 25 24 23 22 21 20 19 18 18 18 20 23 18 8 5 8 11 14 16 17 15 12 11 10 9 9 7 6 7 6 5 8 8 4 2 2 3 3 3 2 3 4 2 2 4 4 3 5 5 7 8 6 5 7 8 7 8 10 10 9 9 9 10 10 7 5 8 11 9 6 5 3 4 5 7 8 8 6 5 5 6
31 29 27 26 24 23 24 23 23 22 21 20 19 19 19 17 18 24 25 17 7 6 9 12 15 17 17 16 16 15 13 12 11 8 8 8 6 5 5 3 2 2 2 2 3 2 2 3 2 1 3 3 3 5 5 5 7 7 7 8 7 6 7 7 8 8 8 9 10 6 3 3 5 8 10 8 3 3 5 7 9 10 9 7 5 5 6
30 28 27 27 25 23 23 22 22 22 21 20 19 19 18 16 15 18 22 21 14 10 11 14 18 22 25 25 24 23 21 20 18 14 10 8 7 7 7 8 7 5 2 2 3 2 1 2 2 2 3 3 3 5 6 6 6 5 6 7 6 5 4 2 4 6 7 8 7 6 8 9 8 8 10 10 4 1 2 5 7 7 7 7 7 7 8
30 28 28 27 25 24 22 22 22 22 22 21 18 18 18 16 15 16 19 18 14 13 15 19 20 21 23 24 24 24 24 22 21 19 15 11 8 8 9 9 8 6 4 4 4 3 3 3 3 3 4 4 4 6 6 6 6 6 6 7 6 5 4 3 4 7 10 10 12 13 12 12 12 12 12 10 6 3 3 4 5 5 6 6 7 8 9
30 29 27 26 25 24 23 23 22 22 22 21 18 16 17 15 15 17 16 12 8 7 10 12 12 11 12 14 14 16 19 21 21 20 18 15 10 7 7 8 7 6 5 6 5 4 3 3 2 3 5 5 5 6 7 7 6 6 6 7 8 7 6 5 6 8 9 8 10 13 14 12 13 14 14 12 9 6 5 4 5 5 6 7 7 8 8
30 28 27 27 25 24 24 24 23 22 22 20 18 15 14 13 15 18 16 9 5 4 5 6 9 13 15 14 13 14 15 17 18 18 19 20 17 12 10 8 8 8 7 5 4 5 5 4 4 5 6 6 5 6 7 7 6 6 6 7 7 5 3 4 8 10 10 9 11 15 17 17 16 14 12 11 10 8 6 5 5 5 5 6 6 5 5
29 28 27 27 26 25 25 25 24 23 21 18 17 15 12 11 14 19 17 9 4 5 5 6 9 13 14 13 15 15 14 15 16 17 19 22 23 21 18 13 11 11 9 6 5 6 6 6 6 7 7 6 5 6 7 8 7 8 9 9 8 7 7 8 10 11 11 12 14 15 16 17 18 15 13 11 11 9 8 7 7 5 5 5 4 1 1
28 28 28 28 27 26 25 25 23 22 19 16 15 14 11 10 12 17 17 11 4 3 6 7 7 10 13 17 18 17 14 15 16 17 19 20 21 22 20 15 11 10 9 7 7 7 6 7 8 8 8 7 6 7 8 9 9 10 11 12 10 9 10 10 9 10 11 11 12 12 11 12 12 10 11 11 10 10 11 9 7 5 4 4 4 2 3
28 28 27 28 28 27 26 25 22 19 16 14 12 11 9 11 14 17 18 17 11 6 6 7 8 11 15 15 14 12 11 12 14 15 17 18 20 20 18 14 11 9 8 8 7 7 8 9 8 8 8 7 7 9 9 9 9 11 12 11 9 10 11 10 10 11 12 12 12 10 9 9 9 9 11 11 10 11 12 9 7 6 5 4 4 4 5
30 28 28 28 29 28 27 23 19 15 13 9 6 5 6 9 13 16 18 20 18 10 6 8 9 10 10 11 11 10 9 10 12 14 15 16 18 18 16 13 11 10 8 8 8 8 8 9 8 8 6 4 4 7 8 8 10 12 12 11 10 10 12 13 14 16 16 16 15 12 10 11 12 11 11 11 12 12 11 8 7 7 7 7 6 5 6
31 30 29 30 30 28 25 20 15 10 8 5 3 2 2 4 9 14 16 19 20 13 5 5 7 6 8 10 12 11 10 10 11 13 15 15 14 14 14 12 11 10 9 8 8 8 7 7 8 9 8 6 4 4 5 8 10 12 12 12 11 12 13 14 16 17 16 16 14 12 12 13 13 12 11 12 13 11 8 7 7 7 8 9 8 8 7
33 32 32 32 30 25 19 14 9 5 5 7 5 2 1 0 3 7 10 15 18 12 4 4 7 7 7 7 8 10 11 11 10 10 12 13 13 13 14 13 10 9 9 9 8 8 8 7 7 7 8 9 7 4 5 7 9 12 13 13 12 12 13 12 14 17 17 16 14 13 13 13 11 10 10 11 12 10 7 7 7 7 10 10 9 9 9
34 33 33 31 26 18 10 6 4 5 8 8 5 2 2 3 3 4 7 13 15 9 3 4 6 6 5 4 6 10 12 11 9 8 8 9 10 10 12 11 9 9 11 9 7 7 8 9 9 8 7 8 7 4 5 8 12 16 16 12 10 11 12 12 13 16 16 15 13 13 13 13 11 10 9 9 10 10 9 8 8 8 11 10 9 8 9
34 33 32 27 19 10 5 2 2 6 8 8 6 4 4 5 3 2 6 12 11 5 2 3 4 4 4 6 7 6 6 6 6 5 5 6 6 6 7 9 9 9 10 9 6 4 5 6 8 9 7 6 5 4 5 11 17 19 17 11 9 9 11 12 14 15 14 13 13 13 12 11 10 10 9 8 8 9 9 10 10 10 11 10 9 9 10
34 30 26 20 11 6 6 7 7 7 6 4 4 3 5 7 6 4 8 10 6 2 2 2 4 5 5 6 5 2 2 4 5 4 4 4 4 3 4 6 6 6 8 8 6 5 5 5 6 7 5 5 6 6 8 13 17 17 16 14 12 11 12 14 15 15 15 14 14 14 13 11 8 7 9 10 10 10 11 12 11 12 13 11 8 8 11
30 24 18 12 6 5 7 9 7 4 3 2 1 1 1 4 6 8 11 10 4 1 2 3 3 4 4 7 5 3 5 5 6 5 5 3 3 3 3 3 4 4 5 5 5 7 6 2 3 5 5 5 6 7 8 12 14 14 15 16 14 12 13 14 14 13 13 13 13 13 13 11 9 9 12 13 12 14 16 15 14 13 13 10 8 6 8
22 15 12 7 3 5 4 4 3 1 2 2 1 2 3 2 2 7 12 10 4 2 2 2 3 3 4 5 5 4 4 5 5 4 4 3 2 2 3 2 3 3 2 3 4 6 3 1 3 5 4 3 6 8 11 13 15 16 18 17 14 12 13 14 13 11 12 13 13 11 10 10 9 9 11 12 12 16 18 17 15 13 11 10 9 8 7
14 8 6 3 3 2 1 3 2 4 6 3 1 1 3 4 4 5 7 7 5 4 2 2 4 4 3 4 4 3 4 4 3 3 2 2 1 1 1 2 2 2 1 1 3 3 2 2 3 4 4 5 9 12 14 15 16 16 17 15 11 10 10 11 11 11 13 13 11 10 9 8 8 8 8 10 13 17 18 16 13 11 9 9 10 9 8
10 5 2 1 2 1 3 3 3 6 6 1 4 4 4 3 3 3 3 3 3 3 2 3 5 4 2 3 5 3 3 3 3 2 2 2 2 2 1 1 2 2 2 2 2 2 3 3 3 3 5 7 9 12 12 7 7 10 12 10 7 4 4 7 10 13 14 11 9 9 9 10 9 8 8 10 13 16 16 14 11 10 9 9 9 9 9
10 4 0 2 3 4 4 5 7 5 2 4 4 2 1 1 0 0 1 2 2 2 2 3 4 4 3 5 5 3 2 3 4 3 2 2 2 2 2 2 1 2 2 2 1 1 2 3 2 2 4 8 12 17 18 15 11 6 2 3 3 3 5 6 7 9 11 9 6 8 9 10 10 10 10 11 14 16 16 15 12 9 9 10 10 10 9
7 3 1 2 4 4 6 8 6 1 3 3 1 0 1 0 1 1 1 1 2 1 2 2 3 3 4 5 5 3 2 2 4 5 4 2 1 1 2 2 2 2 3 3 2 2 2 4 4 4 6 10 13 15 16 17 18 17 12 6 4 5 6 8 9 10 11 9 7 8 8 9 11 11 11 12 15 16 16 14 12 10 10 11 12 11 10
6 4 3 3 5 7 8 7 3 2 1 2 2 2 2 2 1 1 2 3 3 2 1 2 4 4 1 3 4 4 2 2 3 3 3 2 1 1 2 3 1 2 3 3 3 2 3 4 5 7 9 13 15 17 17 18 18 19 18 15 12 9 9 9 10 10 9 9 9 9 10 12 12 11 12 13 15 16 15 14 13 13 12 12 13 13 14
6 4 4 5 6 6 5 3 1 1 2 3 3 3 4 3 2 1 2 3 3 3 1 1 4 6 3 2 3 3 2 1 2 2 2 3 2 1 3 3 1 3 4 3 3 3 4 4 6 9 11 14 16 18 18 17 18 19 19 19 17 15 13 13 12 10 10 10 10 11 12 13 12 11 11 12 13 15 15 15 15 14 14 15 17 18 18
7 4 3 3 3 3 2 2 3 2 3 3 3 4 5 4 3 3 3 2 2 4 4 2 3 4 4 2 2 2 2 1 1 2 2 3 2 1 2 3 3 3 3 3 3 5 6 7 8 10 11 13 16 18 18 17 17 18 18 19 19 18 17 19 19 18 16 14 13 13 14 13 14 16 18 18 17 16 15 16 17 17 17 17 18 19 20
6 3 2 1 2 3 3 3 3 3 4 4 4 4 6 7 7 6 4 3 3 6 6 6 6 6 5 4 2 2 1 1 1 1 2 3 3 2 3 4 4 2 2 2 4 5 6 7 9 11 12 13 15 16 16 16 16 16 17 20 21 21 21 23 23 20 18 17 17 17 16 15 16 19 22 23 22 19 15 16 19 21 21 21 20 20 20
3 3 3 3 4 4 3 3 3 4 5 4 3 4 6 8 8 7 6 5 4 6 7 7 7 8 7 4 2 2 2 2 1 2 3 4 4 4 4 4 3 3 3 4 4 5 6 7 8 10 13 14 15 15 15 14 13 13 16 19 21 21 22 24 22 18 16 17 18 18 18 17 16 16 18 23 27 25 20 19 21 23 24 23 21 19 21
3 3 4 4 5 5 4 4 4 4 3 4 4 5 5 6 6 6 6 6 6 7 7 7 7 7 7 5 3 3 3 3 3 3 3 3 4 5 4 3 4 5 5 6 6 7 8 9 9 9 11 13 14 15 15 13 12 12 13 15 17 18 19 20 19 16 16 18 19 18 17 16 16 17 20 24 28 27 25 24 26 26 25 22 19 19 23
3 3 3 4 4 5 5 5 4 4 4 5 6 6 6 6 5 5 6 7 7 7 7 7 5 4 5 5 5 5 5 4 4 5 3 3 3 3 3 3 5 5 4 6 8 8 7 8 9 10 11 12 13 15 15 14 14 14 14 14 15 17 18 18 17 16 16 18 18 16 15 15 17 20 21 22 24 25 25 26 27 26 24 22 21 22 24
4 3 4 4 4 5 7 7 6 6 7 8 8 8 7 6 6 7 8 7 6 6 7 7 5 3 4 5 6 7 6 5 5 5 4 3 3 3 3 4 5 4 4 6 8 8 7 8 8 9 10 11 13 14 14 14 14 16 16 15 15 17 18 18 17 17 18 17 15 14 14 16 19 20 20 19 20 23 24 25 26 24 23 21 21 22 21
5 4 4 4 4 5 7 7 7 8 9 9 9 9 9 8 8 9 8 7 6 5 4 3 2 3 4 4 4 7 8 7 5 5 5 5 5 4 4 5 5 5 5 5 7 7 7 7 8 10 11 12 13 13 13 12 13 14 14 14 14 14 15 16 17 19 20 18 16 15 15 17 19 21 20 17 16 18 22 25 25 23 22 20 20 20 19
6 5 5 6 6 7 7 7 8 9 9 9 9 9 9 9 9 9 9 8 6 4 3 2 2 3 4 3 3 6 7 6 4 5 8 8 6 4 4 5 5 5 6 6 7 7 7 7 8 10 11 12 13 13 12 11 12 12 12 12 13 13 14 16 17 18 19 19 18 18 18 18 17 18 17 14 14 18 22 23 21 20 19 19 19 18 18
5 5 6 7 8 8 7 8 9 10 10 9 9 9 9 9 9 10 11 9 6 5 6 5 4 4 5 5 5 5 4 3 4 7 8 7 4 3 5 5 5 6 6 6 7 6 6 6 8 9 11 12 13 12 11 11 11 12 12 13 15 15 15 16 17 17 18 19 19 19 18 17 16 16 15 15 17 19 19 18 18 18 18 18 18 18 17
4 5 5 6 7 7 6 7 7 8 8 8 8 8 9 9 9 10 11 9 7 8 8 6 5 5 6 6 5 4 3 3 5 8 7 5 4 4 5 5 5 6 6 6 6 6 6 7 8 9 10 10 11 11 11 10 11 12 13 15 16 15 15 16 16 16 16 17 17 17 16 15 15 16 17 18 17 15 12 12 15 16 16 16 17 17 17
Wind_Direction
351 352 352 351 352 353 353 354 354 353 356 358 352 341 333 338 331 331 344 343 333 321 338 8 353 358 356 332 313 315 309 315 324 328 336 329 314 309 287 282 289 282 286 294 284 286 291 280 275 287 48 40 28 8 357 346 338 332 287 164 62 279 230 216 221 209 205 211 194 195 208 208 206 210 207 206 208 208 214 222 211 210 219 220 231 246 234
350 352 352 351 351 352 352 354 354 355 359 357 348 344 344 333 317 322 352 352 343 349 17 358 349 357 347 332 324 325 321 326 329 328 336 339 327 316 299 298 305 298 298 289 276 280 280 262 263 273 311 40 25 4 2 355 354 13 3 347 353 231 215 207 217 210 195 198 193 195 207 212 214 213 208 210 212 209 214 225 230 229 221 215 221 236 211
349 351 352 351 351 351 350 353 355 356 359 360 352 344 337 330 327 348 357 357 2 30 29 353 346 352 343 333 332 331 327 334 338 331 330 333 326 316 311 318 314 300 294 281 266 267 264 259 271 268 276 358 17 359 356 355 360 8 350 331 310 256 222 208 211 209 202 197 193 196 205 206 213 218 211 209 210 210 212 219 222 223 220 219 225 231 171
347 349 350 350 350 350 349 351 354 354 358 2 354 344 342 335 341 352 348 348 5 27 23 354 346 347 339 332 333 332 328 338 347 337 331 337 330 322 329 343 332 315 312 297 266 252 252 261 275 273 277 298 348 345 339 354 5 349 337 331 306 269 238 226 232 234 230 220 205 353 275 211 205 210 213 210 209 210 212 218 220 215 218 225 226 228 213
346 345 346 347 349 350 348 349 352 353 358 1 351 342 349 343 344 353 343 328 342 356 357 353 349 339 330 325 324 324 325 334 343 343 341 342 334 321 346 24 7 352 340 322 284 265 259 255 262 268 284 303 316 319 315 354 2 338 331 341 321 266 219 222 248 265 276 302 322 340 329 237 211 208 211 211 210 211 214 221 221 210 218 228 217 216 225
343 343 343 344 347 348 347 347 349 351 355 359 352 348 360 355 343 353 343 315 324 338 338 336 332 324 320 317 311 315 325 336 341 342 334 330 336 330 321 18 11 359 344 326 300 296 278 254 260 279 294 305 309 306 290 2 7 342 331 358 349 283 231 206 245 262 266 278 282 284 289 269 246 226 216 211 211 213 216 223 225 219 225 236 214 209 222
339 340 341 342 344 345 346 345 345 347 350 350 347 351 2 347 328 341 338 314 310 318 319 317 318 322 324 318 313 319 327 334 336 337 326 319 334 343 317 339 356 354 340 320 307 315 299 273 305 328 313 305 306 299 261 184 26 355 333 2 360 301 269 36 280 271 267 258 253 256 260 252 245 241 231 221 219 220 221 224 228 229 234 239 234 228 227
335 338 340 341 341 341 342 341 340 343 346 343 343 354 354 337 330 331 321 310 307 308 310 310 313 322 323 309 325 329 323 328 333 327 319 315 323 331 317 326 337 335 328 316 301 307 307 297 309 322 315 310 311 299 273 296 359 344 333 355 344 309 335 4 303 277 255 243 240 241 245 244 241 237 233 231 231 230 229 229 228 231 235 237 238 241 237
334 336 337 339 340 337 336 336 336 339 342 336 331 339 333 319 319 317 306 308 312 309 312 315 309 316 325 319 331 329 315 323 328 316 312 318 321 327 321 320 323 315 305 301 293 296 303 296 292 301 303 298 299 295 290 310 328 328 329 336 322 307 316 321 291 261 237 224 225 231 239 248 249 239 229 227 229 230 232 232 231 231 233 235 237 240 241
333 334 334 336 337 334 332 331 329 332 333 322 313 326 335 324 315 318 299 295 304 308 310 311 305 313 330 322 318 313 307 316 323 315 313 309 307 317 314 309 309 301 290 294 297 296 297 292 287 289 283 277 279 278 276 285 294 298 307 314 307 298 304 304 278 257 234 202 207 229 242 247 245 235 226 225 226 229 232 232 233 233 234 236 237 239 242
331 333 333 334 334 332 329 323 321 324 321 309 295 308 324 328 315 315 293 282 298 311 309 309 312 314 315 312 308 303 303 308 312 306 294 293 301 307 304 299 296 291 295 311 318 300 289 283 278 273 267 265 265 264 265 268 267 267 276 284 285 285 284 285 288 267 240 211 221 245 236 234 239 230 223 225 224 226 229 231 231 230 232 240 247 250 247
328 329 330 330 328 327 326 320 314 310 306 299 279 280 297 312 292 287 278 284 298 305 300 299 303 302 301 302 302 300 301 302 300 293 289 293 299 299 294 292 286 282 299 310 308 298 289 282 274 263 256 254 252 252 255 256 253 251 248 250 265 274 267 265 275 262 255 263 256 232 225 229 260 106 204 227 229 229 232 236 235 232 232 236 241 245 245
321 323 324 325 323 320 319 318 312 300 296 293 275 267 276 272 254 264 258 276 288 296 300 298 296 296 297 300 304 302 299 299 295 288 286 289 294 295 291 284 282 291 304 303 299 299 293 284 276 263 251 245 242 242 244 244 243 241 234 231 240 250 257 259 256 249 256 258 233 224 229 359 330 214 183 211 222 224 233 235 233 233 234 235 238 243 244
315 317 319 320 320 317 312 310 307 297 291 286 276 272 272 248 232 256 265 264 281 293 299 297 296 300 304 307 309 305 299 298 295 289 289 291 291 292 291 285 287 295 300 297 297 297 291 284 280 263 242 231 232 235 232 232 234 231 226 221 222 231 244 251 246 243 241 242 240 241 272 302 249 212 128 91 174 162 255 242 234 233 236 236 237 242 246
312 314 317 318 317 315 309 305 303 297 290 284 274 270 267 247 231 243 250 245 279 293 292 289 299 309 311 309 307 305 301 301 299 294 293 290 286 286 287 289 293 293 289 288 289 288 282 283 281 263 230 215 223 229 221 217 221 223 223 220 214 218 229 236 238 238 234 244 249 241 250 256 227 171 101 72 54 46 38 257 252 244 245 246 241 242 246
312 313 315 315 314 311 307 302 301 298 293 288 275 261 258 246 228 227 236 240 265 282 289 298 301 301 301 299 298 298 298 301 305 304 296 289 290 294 295 295 292 286 281 276 274 279 279 275 272 264 248 235 236 230 214 208 207 205 209 213 211 212 218 229 238 237 229 237 241 233 238 241 166 123 104 78 51 61 149 231 235 223 14 348 304 271 257
313 312 311 309 307 306 302 298 298 297 293 289 278 260 247 237 224 220 223 231 240 261 281 293 295 292 289 294 296 293 294 297 298 296 295 299 302 302 304 309 295 275 264 256 246 251 268 273 272 267 262 261 264 252 227 220 215 195 194 203 208 209 211 218 228 231 228 232 237 239 245 240 170 114 95 45 10 46 213 231 216 72 26 4 345 319 298
314 312 310 306 302 301 300 296 294 292 289 289 283 266 247 234 224 215 214 233 242 254 271 278 281 283 288 297 298 291 292 297 292 287 289 291 298 308 314 314 301 271 235 238 247 247 261 270 272 274 272 257 252 260 248 231 225 200 182 191 199 202 206 212 221 226 227 231 238 244 243 243 246 241 137 13 316 250 220 222 114 37 357 350 345 323 313
311 309 308 307 302 299 298 296 293 290 287 288 285 267 246 234 222 212 209 226 239 242 261 271 273 276 280 284 284 279 277 279 277 279 285 284 306 320 307 291 282 267 215 235 256 257 264 274 285 295 289 267 242 268 266 246 237 211 177 192 199 201 206 211 219 225 225 226 235 244 245 234 243 253 257 256 254 241 208 169 360 326 326 339 331 316 322
308 308 308 308 305 299 296 295 294 291 287 286 284 270 254 242 225 215 213 217 238 253 262 266 266 268 272 272 271 273 275 271 264 261 270 277 309 317 299 263 207 259 252 247 260 261 265 280 329 334 290 294 312 299 272 246 244 244 229 219 213 210 215 214 212 214 224 231 229 235 246 218 211 234 246 229 226 276 351 343 326 325 333 340 327 322 334
308 309 308 307 305 302 298 297 296 294 289 285 281 273 262 243 222 218 221 223 232 262 267 270 270 269 270 268 266 266 265 263 262 262 266 274 284 289 288 297 313 298 294 288 286 287 287 298 330 328 292 304 305 290 278 257 248 242 239 242 239 228 227 227 218 209 215 222 217 221 310 314 218 224 237 236 237 2 349 325 322 326 331 337 335 332 332
308 309 308 307 306 304 302 300 299 297 295 291 283 273 260 237 214 216 222 222 226 243 262 275 279 275 273 270 265 260 256 255 258 257 255 264 264 251 258 277 280 270 282 301 282 273 283 294 302 296 288 283 266 270 279 276 257 228 219 231 231 214 213 251 271 258 257 258 262 295 323 313 295 271 258 258 273 7 307 295 302 307 319 332 325 318 321
309 309 308 307 308 308 305 303 301 299 298 296 288 273 260 242 217 210 213 218 229 245 258 269 275 274 270 264 257 252 250 251 253 248 240 243 253 250 249 258 265 262 254 258 273 294 294 280 289 297 286 281 282 281 274 262 258 249 233 233 240 247 261 295 295 288 292 287 278 277 280 287 299 301 294 291 297 294 273 275 281 292 311 316 310 309 312
310 309 309 309 309 310 308 305 305 302 299 297 291 275 262 247 221 205 205 214 235 256 258 257 259 263 266 264 257 248 240 238 240 241 235 231 235 245 245 241 245 256 253 244 252 277 282 270 269 272 270 275 282 278 268 259 261 266 257 249 252 261 272 270 264 274 284 276 266 270 279 293 307 309 305 300 291 287 292 284 276 292 304 300 299 303 300
311 310 310 310 310 311 311 309 307 305 301 298 293 280 262 243 219 205 203 211 235 256 264 258 254 264 275 278 270 256 244 238 236 235 230 226 226 236 249 246 238 248 261 265 253 251 258 261 257 257 265 268 262 260 266 268 270 275 273 262 259 276 304 281 262 259 260 265 274 282 290 298 300 297 296 292 284 282 287 282 274 277 284 289 295 300 299
312 311 311 312 313 315 315 313 310 307 303 297 290 277 259 240 219 208 206 213 237 248 258 270 270 272 277 275 265 259 256 250 242 236 232 229 228 235 247 254 251 251 259 269 261 254 256 259 258 259 261 258 251 255 267 273 275 278 274 265 266 279 281 272 267 263 260 263 268 272 279 282 279 277 279 281 284 286 279 268 264 259 252 258 269 293 330
311 312 314 316 317 317 317 316 313 307 302 295 285 271 254 237 225 215 209 205 204 245 256 260 275 288 287 282 276 270 260 250 244 239 237 236 234 236 242 246 250 252 254 255 254 254 255 253 253 254 255 258 262 264 266 269 273 272 266 260 259 262 260 257 259 259 256 257 257 259 262 264 266 282 294 292 288 284 271 256 249 243 231 225 216 166 104
313 314 316 319 320 319 318 316 312 307 299 288 277 267 249 233 232 230 221 212 211 240 274 274 289 304 298 289 284 275 256 244 240 237 237 236 234 235 237 239 242 246 247 248 249 248 249 251 253 254 256 264 268 261 259 263 264 261 258 251 240 241 251 258 261 259 259 261 263 265 269 268 276 303 314 308 293 273 258 247 234 214 190 175 170 147 116
317 316 318 321 322 321 319 315 310 303 292 279 265 258 249 239 238 237 230 222 220 231 272 280 281 294 295 289 290 284 262 246 241 237 236 236 233 231 232 232 234 235 236 240 244 245 247 250 253 255 257 261 267 265 263 262 257 255 255 251 242 242 253 261 265 265 264 264 266 270 276 278 283 295 304 304 289 265 243 228 217 195 159 135 126 120 114
320 319 321 325 325 322 319 314 308 295 271 239 194 196 234 249 242 237 232 228 224 224 250 275 273 292 300 289 285 280 267 259 253 241 234 233 233 230 227 226 228 229 228 231 235 240 247 249 247 250 248 241 250 275 265 255 259 261 258 252 249 249 251 255 260 263 262 260 263 269 273 274 278 288 292 285 272 255 229 204 200 176 139 128 125 114 106
322 322 326 329 328 325 320 309 295 261 197 177 173 186 176 98 226 219 217 220 220 220 239 267 268 291 299 277 266 271 273 273 267 249 236 233 234 231 226 224 224 223 224 228 231 235 240 241 239 243 236 220 221 248 249 244 259 265 253 241 235 237 241 248 256 259 259 258 257 262 266 267 269 279 281 264 244 228 199 179 174 143 120 116 117 116 112
324 325 331 333 331 331 331 310 264 198 175 179 189 178 137 153 161 158 180 200 208 213 238 270 274 291 297 285 288 288 280 270 263 255 243 231 227 225 221 220 222 222 221 225 232 233 234 235 237 244 232 210 211 238 242 233 245 254 251 238 226 230 235 240 250 256 256 253 251 253 256 255 251 254 257 241 218 200 174 156 144 123 110 106 105 108 107
327 330 334 335 336 346 9 36 145 156 166 189 214 229 222 214 200 143 166 183 191 200 224 262 280 284 290 309 316 306 282 269 263 260 249 231 221 216 213 215 222 223 218 218 225 232 227 225 233 241 230 205 211 240 240 230 237 248 254 250 234 232 237 242 251 257 254 246 241 238 239 245 250 246 237 221 203 182 154 135 124 111 102 100 103 107 103
332 335 335 335 346 22 64 83 103 127 150 188 223 245 244 239 238 208 170 167 172 198 198 228 277 281 287 300 309 18 31 322 292 276 271 248 224 225 224 212 210 214 213 209 216 234 235 227 235 242 227 202 211 233 246 245 244 250 260 259 247 241 246 249 250 249 242 235 232 230 232 247 259 238 213 201 185 153 121 105 102 100 96 91 95 107 110
338 338 331 332 6 77 90 88 95 119 145 149 128 54 324 275 256 220 188 172 169 235 206 218 266 283 298 302 309 29 24 330 297 289 298 287 242 243 247 215 195 204 203 195 216 240 245 240 248 249 236 214 215 228 248 257 256 257 260 258 248 238 240 246 246 236 223 220 221 220 224 232 227 196 182 179 158 124 101 88 82 82 83 79 74 80 97
344 337 326 339 68 113 111 91 89 68 48 52 13 354 1 356 244 207 198 194 211 268 256 245 253 258 287 301 311 351 350 322 310 310 304 293 265 250 247 233 226 219 187 183 225 244 251 274 258 253 245 228 233 240 248 254 257 258 258 257 251 240 240 245 242 216 194 193 198 196 197 206 201 182 171 162 134 109 99 93 85 78 73 69 63 52 57
350 342 339 18 122 165 134 98 81 355 346 338 308 66 84 104 121 163 190 205 230 250 261 284 272 264 275 288 291 314 326 319 326 331 307 291 302 285 246 258 277 284 272 245 258 267 269 264 262 264 258 247 251 258 259 252 248 252 258 262 260 249 238 232 214 178 156 156 164 160 161 179 185 175 167 151 120 104 100 97 93 90 86 76 65 49 39
11 22 27 227 244 304 35 52 2 339 342 322 164 140 121 128 132 143 172 199 225 220 215 255 266 259 246 252 265 287 311 307 317 335 314 297 313 336 339 318 320 323 307 281 271 269 265 259 251 257 272 286 306 323 326 309 253 243 248 253 256 242 181 165 165 153 138 134 149 157 162 170 168 159 153 135 113 104 102 99 95 97 93 84 77 69 55
22 30 251 271 338 14 13 343 331 343 75 149 171 172 140 149 156 122 171 202 233 227 211 243 260 248 233 255 272 272 256 284 315 335 324 318 347 3 355 343 325 324 325 319 311 313 311 307 302 291 307 332 351 359 3 12 22 18 306 220 195 137 101 104 119 118 109 114 152 177 172 162 152 145 139 124 111 106 105 102 99 97 91 84 80 75 64
16 3 335 6 15 356 329 326 330 354 153 175 221 276 51 54 340 336 316 282 277 250 199 229 262 246 224 250 284 289 213 253 315 324 322 334 360 342 341 345 324 319 339 351 4 27 5 335 334 350 352 352 360 8 13 18 24 24 23 37 86 100 86 72 73 81 89 108 145 160 149 138 135 133 129 120 111 107 104 101 97 93 88 85 81 74 67
6 2 353 345 332 320 322 331 326 213 224 347 2 13 7 4 13 339 327 330 337 339 208 244 302 316 240 222 262 275 250 249 279 287 300 321 317 322 347 344 314 334 2 355 338 345 347 343 2 17 6 356 3 16 22 23 25 24 21 24 40 57 63 69 82 96 105 115 123 121 112 109 112 115 114 109 104 101 97 95 91 84 79 80 80 75 71
335 330 310 303 299 296 307 337 348 313 358 5 4 359 358 2 13 2 359 5 358 341 314 281 313 319 310 259 254 257 260 291 280 269 300 331 346 347 337 327 345 27 19 347 316 333 355 13 23 15 3 2 12 21 23 24 28 28 24 25 34 42 46 55 68 78 84 91 95 91 85 84 85 86 87 87 85 83 80 81 82 78 72 74 77 75 69
353 350 316 295 288 281 300 360 7 18 22 6 355 358 1 359 359 355 359 11 347 328 328 325 302 294 291 292 277 250 236 284 287 279 312 335 333 312 332 4 29 24 352 319 338 7 22 31 24 6 357 7 20 26 25 26 29 32 30 30 35 41 47 53 55 51 49 60 74 77 75 73 70 69 71 73 75 75 70 67 69 71 69 69 71 70 68
8 2 338 297 321 337 360 19 15 15 18 9 360 358 354 351 351 352 353 351 336 328 328 328 329 335 348 352 330 305 290 274 262 288 335 336 330 339 10 27 29 360 316 344 11 23 33 32 18 6 8 18 23 24 24 27 30 34 37 36 36 38 46 53 53 48 45 51 59 64 67 67 64 63 65 68 71 73 71 66 66 67 68 68 64 58 58
354 344 358 23 13 360 11 29 20 14 14 4 346 343 345 342 341 344 347 344 328 321 323 325 332 344 354 353 347 2 352 319 318 354 342 335 353 13 16 11 9 20 35 29 20 30 39 28 10 7 14 17 15 16 21 27 31 36 43 43 39 38 44 50 51 49 48 51 53 55 58 60 60 61 63 64 64 66 68 68 68 68 68 67 60 51 51
37 13 18 37 31 20 24 24 9 359 351 338 334 341 345 339 333 336 344 344 335 332 333 329 332 351 6 8 17 26 6 347 3 9 340 336 10 11 349 341 11 30 36 31 29 34 32 19 5 5 11 13 15 20 25 28 28 32 42 47 44 41 46 51 50 47 46 49 52 52 51 52 56 61 62 61 60 60 62 65 67 68 67 65 59 55 58
44 19 25 47 40 28 26 22 7 353 347 348 355 1 355 343 342 354 359 352 343 342 340 333 331 352 8 7 21 36 29 19 28 25 1 353 14 4 344 3 24 23 20 26 32 34 26 10 359 359 4 12 23 30 31 29 26 26 32 42 45 44 45 46 45 46 48 49 51 52 51 51 55 60 61 60 58 56 56 61 65 66 65 63 62 61 60
42 16 25 47 42 25 20 16 14 15 12 9 10 11 6 2 9 14 10 358 349 352 353 347 347 358 360 1 21 36 33 26 31 26 9 4 13 4 360 18 23 16 16 27 32 33 27 12 1 359 6 18 30 34 34 33 29 26 27 33 39 44 48 48 47 48 50 51 51 53 52 52 56 59 60 61 59 56 55 58 61 59 56 57 58 57 54
56 40 37 47 51 37 22 15 18 21 17 12 11 11 12 17 21 15 4 353 350 353 346 326 327 359 359 355 18 35 32 28 30 27 24 29 27 7 360 16 22 13 9 16 23 24 18 7 4 10 17 24 32 36 36 35 32 29 29 31 33 38 46 51 51 52 53 54 55 55 52 53 58 60 59 58 57 57 57 56 55 51 49 51 56 55 51
52 51 45 40 39 35 25 20 25 25 18 13 11 8 8 14 18 10 357 346 343 350 354 343 9 26 19 10 31 43 35 23 21 33 40 42 34 10 7 20 18 6 360 6 13 12 2 357 7 16 19 22 28 30 28 28 31 32 33 35 36 37 42 47 50 52 55 57 59 58 55 53 55 59 59 57 58 60 59 55 52 51 51 52 54 56 53
38 47 48 40 34 30 24 26 30 26 18 15 13 6 3 9 10 1 352 348 356 21 28 20 15 25 29 28 34 38 19 352 12 38 44 40 26 22 33 27 5 354 358 5 6 1 352 351 6 16 18 20 23 23 20 23 29 30 31 35 37 37 39 43 47 51 54 55 58 60 59 56 57 61 64 63 63 64 61 55 52 55 56 54 54 55 55
38 46 49 42 32 27 24 27 31 27 21 20 18 10 7 10 5 355 354 4 25 38 35 27 28 39 41 35 28 29 32 31 35 40 41 34 24 35 41 23 357 353 360 1 358 358 357 354 0 10 15 14 13 12 15 22 27 27 29 33 36 37 38 40 43 46 50 52 54 56 59 61 61 62 62 60 59 61 60 55 53 56 58 57 57 58 58